Location: ?ernice
(48.8383°N, 14.3803°E)
Time: 06:21:27
(UTC+00:00)

Genesis I - Pass Details

Date: 23 May 2024
Orbit: 433 x 467 km, 64.5° (Epoch: 15 June)

Event Time Altitude Azimuth Distance (km) Brightness Sun altitude
Exits shadow 02:05:15 13° 231° (SW) 1,410 4.7 -9.1°
Maximum altitude 02:08:19 62° 312° (NW) 513 3.1 -8.8°
Drops below altitude 10° 02:11:51 10° 34° (NE) 1,605 7.3 -8.4°
Sets 02:14:01 0° 38° (NE) 2,490 9.0 -8.1°
